Theta_e
314 314 314 313 314 314 314 314 314 314 315 314 315 315 314 314 314 314 314 314 315 315 316 316 316 314 314 314 314 315 315 316 316 316 318 321 322 323 324 326 328 327 326 326 326 329 336 340 344 346 344 345 345 346 347 350 352 351 356 359 353 356 361 359 360 359 358 357 356 355 353 354 356 356 355 356 356 357 359 358 357 356 354 352 350 350 350 350
314 314 314 314 314 314 314 314 314 315 315 315 315 315 315 315 314 314 314 315 315 315 316 316 315 314 313 314 314 315 315 315 316 317 318 320 322 323 325 326 327 326 325 327 327 327 334 340 342 342 342 345 347 349 349 350 350 353 366 364 353 359 360 355 356 353 356 357 356 355 353 354 357 355 354 357 356 356 360 359 358 357 353 351 350 350 350 349
314 314 314 314 314 315 314 315 314 315 315 315 315 316 315 316 315 315 315 315 315 315 316 315 313 313 313 314 314 315 315 316 316 318 319 320 321 323 325 326 326 327 327 327 327 325 330 338 339 338 339 344 348 349 348 347 346 347 367 370 355 357 356 352 353 353 353 354 355 353 350 355 356 354 355 355 354 356 362 360 358 357 353 351 351 351 349 349
313 313 313 314 314 315 314 315 315 315 315 315 316 316 315 316 316 315 315 316 315 316 316 314 313 313 313 314 314 315 315 316 320 323 323 321 321 322 324 325 325 326 327 328 327 327 331 337 340 337 337 340 344 347 347 345 346 344 359 368 356 353 356 354 353 352 351 352 353 352 352 355 355 355 353 350 355 357 358 358 357 355 352 352 352 352 350 349
311 312 312 313 313 313 314 314 315 315 315 316 316 316 316 316 316 315 316 316 315 316 316 313 313 313 313 314 314 315 315 317 326 328 325 324 322 322 323 324 325 325 326 327 328 329 332 336 339 337 335 337 340 346 346 342 346 349 350 354 353 353 355 355 354 352 351 352 353 353 354 354 354 356 351 347 354 354 353 356 356 354 352 351 353 352 350 349
310 310 310 311 311 312 313 314 314 314 315 316 315 316 316 316 316 316 316 316 315 316 315 313 313 313 313 314 314 315 316 318 327 327 324 324 323 323 323 322 324 326 326 327 328 331 331 334 335 334 335 336 340 343 344 343 344 352 348 346 352 354 354 354 352 352 353 354 354 353 353 353 355 358 350 345 351 350 348 354 355 354 353 352 353 352 351 350
310 310 310 311 311 312 312 313 313 313 314 314 315 316 316 317 316 316 316 315 316 316 314 313 313 313 313 315 314 315 316 319 323 323 322 323 323 322 323 322 324 325 326 326 328 330 331 334 335 334 335 336 338 340 344 343 342 350 351 348 353 353 353 353 352 353 354 354 353 352 353 354 356 359 354 348 354 353 347 352 355 353 354 354 354 353 351 351
310 310 311 311 311 312 312 313 313 313 314 315 315 315 316 317 317 316 316 316 316 316 314 314 314 314 314 314 314 316 318 321 323 325 325 325 324 322 322 322 323 323 325 326 328 330 332 335 336 335 335 334 335 340 343 343 342 348 349 348 352 354 354 353 354 354 355 354 352 353 354 354 355 357 356 354 358 356 348 353 355 354 355 356 355 353 352 352
310 310 311 311 311 312 313 314 314 314 314 315 315 315 315 317 317 316 316 316 317 316 315 316 314 313 315 314 314 320 325 327 326 327 326 327 326 324 322 322 322 323 324 326 328 331 334 336 336 335 336 334 334 337 339 341 342 345 345 346 352 352 353 353 355 354 354 355 354 355 355 354 354 356 356 356 357 356 351 354 356 355 356 355 354 353 352 352
310 311 311 311 312 312 314 314 315 315 315 315 315 315 315 316 317 317 316 316 317 317 317 317 315 314 315 314 317 327 330 327 328 327 327 327 326 325 323 321 322 322 324 326 328 334 335 336 336 335 335 334 334 334 334 338 343 343 343 347 350 352 352 352 353 353 354 356 354 355 357 355 355 358 359 357 356 355 354 355 356 357 356 355 355 354 353 353
311 311 312 312 312 313 313 314 315 315 315 316 316 316 315 316 317 317 316 316 317 317 317 319 318 315 315 315 319 328 329 329 329 326 327 328 325 324 321 320 322 322 324 326 329 335 336 333 334 332 334 334 334 334 333 334 337 341 345 346 349 351 352 351 353 353 354 356 353 354 359 356 355 358 359 356 356 356 355 356 357 357 356 355 355 353 353 352
311 311 312 312 313 314 314 314 315 316 316 316 316 316 315 316 317 317 317 315 317 318 318 320 320 319 317 315 317 324 328 330 330 327 327 327 325 324 322 320 321 322 324 327 332 335 334 333 333 331 332 333 334 335 334 333 334 338 345 347 348 350 351 351 352 351 354 357 353 354 357 358 359 359 356 355 356 356 355 356 356 357 356 356 355 354 353 352
311 312 312 313 314 314 314 315 314 315 315 316 316 315 315 316 317 317 316 316 317 318 319 320 322 321 319 317 317 322 323 325 328 328 326 324 323 326 325 321 319 323 324 327 333 334 334 332 332 332 332 332 334 334 334 333 332 337 344 348 348 347 349 350 351 353 355 355 353 354 357 359 361 356 353 355 356 356 356 357 356 356 356 356 355 354 353 352
312 312 313 314 315 315 315 315 315 315 315 316 315 315 316 316 317 318 316 316 317 319 320 320 323 324 322 320 319 324 324 323 326 326 325 322 321 325 329 325 319 322 325 327 333 333 334 331 331 331 332 333 333 332 334 332 333 340 341 347 350 344 348 350 350 354 355 354 353 354 358 360 360 354 352 354 354 357 357 357 356 354 355 355 354 354 353 352
314 314 315 316 316 316 316 315 314 314 315 316 315 315 316 315 317 318 317 317 316 319 320 322 326 328 326 323 319 324 325 324 325 324 322 323 322 325 332 329 324 325 328 328 332 333 333 331 331 332 331 333 332 332 335 335 347 355 337 340 348 340 347 351 348 352 356 356 353 354 359 360 358 352 350 354 354 355 355 356 357 355 355 355 354 354 352 352
315 316 316 317 317 317 317 316 314 314 314 316 315 315 315 316 318 317 317 316 316 318 319 323 329 331 329 326 323 326 325 324 325 324 322 323 324 327 332 331 328 330 331 331 332 332 332 331 332 332 331 333 331 333 335 339 362 372 342 334 339 336 343 349 348 351 351 356 357 358 364 363 358 352 350 353 353 355 356 355 357 356 356 356 355 354 354 354
318 318 318 318 318 318 317 316 315 314 315 316 316 315 315 318 320 318 318 318 318 319 319 323 328 329 330 327 325 326 326 324 325 326 324 322 324 325 330 332 330 332 333 332 333 332 332 332 332 332 332 332 333 334 331 334 352 361 344 335 336 338 343 347 351 351 349 357 361 359 361 362 359 352 350 352 353 354 354 355 357 357 356 356 355 355 354 354
319 319 319 319 319 318 317 316 315 314 315 315 314 318 320 323 326 325 323 324 324 322 322 322 323 327 328 325 326 327 326 326 326 326 323 322 323 323 329 333 331 332 332 332 332 332 332 331 330 333 333 332 333 332 329 332 341 342 337 334 333 337 343 345 349 351 351 355 361 360 358 361 359 351 349 351 352 353 352 353 356 357 357 356 355 355 355 355
320 319 319 319 318 318 317 316 314 313 315 314 314 321 324 325 331 330 324 324 326 328 331 327 323 328 328 324 327 327 326 327 326 326 323 324 326 325 330 333 333 332 332 333 332 331 331 330 330 332 332 330 332 332 331 334 337 335 336 335 332 331 338 344 347 349 351 352 358 359 356 359 357 351 349 349 350 351 350 352 354 356 356 356 356 356 356 356
321 320 319 320 319 318 317 314 313 314 314 314 318 324 325 324 329 327 321 321 323 326 329 328 326 327 327 326 328 327 327 327 326 327 326 327 328 328 331 332 332 332 331 332 332 330 330 331 331 331 331 331 331 331 333 333 333 335 335 335 332 329 331 339 346 348 350 349 353 355 355 357 355 351 348 347 348 349 349 351 352 354 354 356 357 356 357 356
323 322 320 320 319 318 316 313 313 314 314 316 321 325 323 323 324 322 320 321 321 322 322 325 325 324 326 327 328 328 329 326 325 328 328 328 329 329 330 331 331 331 330 329 329 329 329 329 331 332 331 331 331 330 331 331 333 335 335 333 330 329 331 335 344 348 347 349 352 354 357 356 353 352 347 345 350 349 349 351 351 353 353 354 356 356 357 357
323 323 321 320 320 319 315 313 315 315 315 319 321 322 322 322 322 321 321 321 322 321 320 322 322 323 326 326 328 330 329 328 324 326 328 328 329 329 330 330 330 331 330 327 327 329 328 328 329 329 329 330 330 330 330 332 335 336 333 330 328 331 335 335 343 349 345 347 352 354 357 355 352 353 348 346 350 350 349 351 351 351 352 353 354 355 355 355
323 324 323 321 320 319 315 315 318 317 318 321 321 321 322 321 322 322 322 322 322 320 320 321 321 323 325 327 328 329 329 328 325 326 327 328 328 328 329 329 329 330 328 327 328 327 325 327 328 327 326 328 329 329 332 335 336 337 333 328 328 332 332 327 334 346 345 344 349 354 356 355 353 354 352 347 347 350 350 350 350 350 351 351 352 353 353 353
323 324 324 322 320 319 316 316 320 319 319 321 321 321 321 321 322 322 322 323 323 323 320 320 321 323 325 327 328 328 329 328 326 326 326 327 328 327 327 329 328 327 327 329 328 327 326 327 327 327 328 328 328 330 334 334 334 336 335 329 329 332 330 327 328 337 344 343 346 352 351 351 357 356 356 352 347 349 350 350 351 349 350 350 350 351 351 352
322 323 324 323 321 319 317 318 320 319 319 320 321 321 320 320 321 321 323 326 326 327 325 322 322 324 325 326 327 327 328 328 326 327 327 327 327 326 326 326 326 326 326 327 327 327 327 327 327 328 329 329 328 330 334 333 331 331 334 333 332 333 331 332 331 332 340 340 343 348 340 342 356 358 355 355 354 353 351 350 351 350 349 350 350 350 351 352
322 323 324 323 322 319 318 320 320 318 318 320 322 322 320 321 320 321 326 328 327 328 326 324 324 325 326 326 327 326 326 328 327 325 327 327 326 326 325 324 325 325 326 326 326 327 328 327 327 327 328 330 330 330 333 336 330 326 332 334 333 334 332 332 332 330 332 336 343 344 338 337 344 351 355 355 357 359 355 352 350 350 350 350 351 351 351 352
322 322 323 324 322 319 318 318 315 313 314 317 322 323 321 322 320 320 329 333 331 328 324 324 323 324 326 327 327 325 324 326 326 325 326 328 326 325 326 325 323 323 326 325 323 324 328 328 327 328 328 330 333 331 334 336 329 326 332 334 334 334 331 330 329 325 327 333 337 339 342 340 336 344 356 357 357 358 357 357 354 351 351 351 351 352 352 353
322 322 322 324 322 319 318 316 312 312 313 313 319 322 321 320 320 322 331 333 331 327 323 323 323 324 325 325 326 326 324 325 326 326 326 327 327 325 326 326 324 325 326 324 320 323 327 327 327 328 327 329 333 332 334 334 329 331 334 332 333 331 331 333 329 328 328 327 330 338 345 339 332 341 354 355 356 355 357 362 357 352 353 352 352 353 353 352
322 322 322 324 323 319 317 313 313 316 315 313 316 319 318 317 320 327 333 331 327 324 325 323 324 324 324 325 325 325 325 325 327 327 328 327 326 326 326 326 326 326 326 324 324 325 326 327 328 328 329 330 332 333 335 332 331 332 331 332 333 332 333 333 327 327 326 322 324 332 340 335 330 340 350 348 352 356 357 360 355 351 353 353 352 353 353 351
322 322 322 323 323 319 315 313 316 318 316 314 314 315 316 319 325 329 330 331 328 325 324 324 326 325 324 325 325 325 324 324 326 328 327 327 326 325 326 327 326 327 329 328 327 326 325 326 328 327 330 331 329 331 330 330 331 330 332 336 333 333 338 342 340 332 322 325 330 328 331 336 332 340 352 353 357 361 358 357 355 352 353 353 351 351 352 352
322 323 322 322 321 318 314 315 318 318 315 314 315 317 319 324 330 331 331 331 326 324 324 325 327 324 325 325 324 324 323 324 327 328 327 327 326 325 326 328 328 328 333 332 328 329 327 326 329 327 328 329 329 331 328 328 330 328 337 337 329 334 341 346 350 336 321 326 336 331 330 335 332 338 351 355 360 360 355 360 361 355 352 352 351 351 351 352
322 323 322 321 320 318 316 316 316 317 315 315 317 321 325 327 327 329 334 329 322 324 324 325 326 325 325 324 323 324 324 326 328 329 328 327 327 328 328 330 329 325 327 329 326 327 328 328 330 327 327 329 329 330 329 330 332 331 339 336 328 329 331 334 338 330 324 328 331 330 333 334 334 341 347 353 358 354 349 354 357 354 352 352 351 351 351 351
322 323 322 320 319 318 317 315 313 313 315 316 318 323 330 332 330 329 331 328 323 324 326 325 326 327 325 323 323 324 325 327 329 328 327 327 328 329 328 330 331 325 324 327 322 321 325 329 328 326 327 328 329 329 326 329 330 327 331 330 327 326 322 326 332 326 325 328 326 333 337 332 335 343 349 355 354 347 344 349 354 353 352 352 351 351 351 350
322 322 321 319 319 319 318 314 311 312 314 317 323 328 330 331 335 334 330 328 325 324 325 325 325 326 324 322 323 324 325 326 327 327 325 325 326 327 327 327 328 326 325 324 320 318 319 323 328 328 325 327 329 328 327 329 329 327 332 331 325 327 322 321 327 323 322 326 327 332 336 332 336 343 348 351 349 345 347 352 353 352 352 352 352 351 351 351
322 321 320 319 320 321 321 315 311 313 315 320 328 332 330 329 333 332 329 328 326 324 324 323 325 325 322 322 323 324 326 326 327 326 326 326 325 326 328 326 326 327 324 322 321 321 318 320 329 327 325 328 328 328 329 328 326 324 330 327 322 329 328 322 327 326 321 326 329 329 333 336 341 346 349 350 350 351 352 352 353 353 354 353 352 352 352 351
322 321 323 322 321 323 324 316 312 314 318 325 330 330 328 330 331 330 329 329 327 324 322 322 324 322 320 321 323 324 325 326 327 326 325 326 325 325 326 325 326 326 324 324 323 321 318 322 328 326 325 328 326 327 328 326 326 325 321 323 326 330 326 321 326 328 325 326 328 328 333 339 343 346 347 348 352 354 353 354 354 354 355 353 353 352 351 352
322 323 325 325 323 325 325 318 314 315 319 327 332 331 330 329 328 329 329 328 327 325 322 320 321 321 319 319 322 324 324 324 325 325 324 324 324 325 325 326 325 325 325 324 324 324 322 322 328 327 324 326 327 327 327 325 327 324 319 324 328 327 328 326 323 324 327 326 326 329 333 335 337 342 344 347 352 355 355 356 356 356 356 356 354 353 352 355
321 322 327 329 327 326 324 318 316 316 320 328 334 336 333 327 324 326 326 326 326 327 325 321 321 322 320 319 321 324 324 322 323 324 323 323 324 325 325 325 325 326 324 323 324 328 326 322 329 331 325 326 327 325 325 326 326 324 323 327 325 319 322 326 322 319 322 323 325 329 331 331 334 338 342 346 351 355 355 356 357 357 358 358 356 355 356 356
321 322 327 329 328 327 323 317 316 319 323 330 333 332 328 325 325 325 326 325 326 328 329 326 326 325 323 322 323 324 324 323 324 324 322 321 323 324 325 325 325 324 323 323 325 329 329 324 326 331 327 325 328 326 323 323 325 324 324 325 326 322 321 323 322 323 325 325 326 327 327 330 337 342 343 346 350 353 354 356 356 356 358 359 358 357 357 357
321 323 326 327 327 327 321 316 319 323 326 331 331 327 324 324 325 325 327 327 326 328 331 329 329 329 327 325 325 325 324 324 324 323 323 322 322 324 325 325 326 326 324 323 325 329 332 326 323 331 332 324 323 327 327 326 325 323 322 322 322 323 324 322 322 326 328 328 330 330 327 331 343 346 344 346 348 350 352 353 353 353 356 359 358 358 357 357
321 325 327 325 326 325 319 319 322 324 327 329 327 325 324 324 325 326 327 327 325 327 330 330 330 332 332 329 327 326 325 325 324 324 325 324 322 324 325 325 327 328 325 324 326 327 330 330 324 325 326 324 327 331 329 330 329 325 324 323 321 323 323 320 320 326 328 325 329 332 327 331 343 344 341 343 344 346 350 349 349 353 356 359 359 357 357 357
320 327 328 324 326 324 319 322 324 323 325 326 325 325 325 325 327 327 327 327 326 327 328 330 332 332 334 333 331 328 326 325 324 325 325 325 325 326 326 326 326 326 327 328 328 327 335 339 329 323 326 326 328 332 326 326 330 326 325 326 323 325 325 318 318 325 325 322 327 332 329 334 342 342 339 341 341 342 347 348 349 352 355 357 358 357 357 358
317 322 325 323 325 322 319 325 328 326 326 325 325 325 325 326 328 326 326 327 327 326 328 329 331 331 332 334 333 331 328 325 325 326 326 327 328 327 326 327 326 327 329 330 329 329 335 337 330 333 349 346 333 334 333 329 329 324 324 326 324 325 325 321 325 328 322 319 326 330 329 333 342 342 338 338 340 341 345 348 350 352 356 357 357 357 358 357
317 320 323 323 324 321 320 326 329 329 328 325 324 325 326 328 328 327 327 326 326 328 329 328 329 328 330 332 333 333 329 326 326 327 327 328 327 327 329 331 330 333 332 332 333 327 325 333 335 335 343 345 339 337 338 337 332 327 327 328 326 328 325 324 333 331 322 323 330 330 327 334 345 346 340 339 341 341 343 348 353 354 357 359 358 357 357 356
319 322 325 324 322 321 321 323 323 324 325 323 323 326 327 329 330 329 328 326 326 328 328 329 329 329 331 332 334 335 331 329 329 329 330 330 327 328 331 332 332 336 335 334 337 332 328 337 344 335 330 330 328 327 329 333 333 329 329 328 327 329 327 328 330 322 320 329 335 334 332 337 345 345 341 345 346 343 345 350 355 357 358 359 359 358 357 356
320 326 327 325 323 321 321 323 322 323 325 325 326 329 328 328 329 327 326 327 326 327 328 331 330 332 333 332 334 336 334 333 334 333 333 330 328 329 331 334 334 333 335 333 332 337 342 343 348 349 343 337 336 337 338 336 329 324 326 329 328 328 329 332 324 318 328 333 333 343 343 332 336 343 344 347 346 344 347 351 355 358 358 360 360 357 357 357
322 328 326 325 327 325 324 325 324 323 324 326 329 330 327 327 328 328 327 326 326 328 330 330 332 334 334 333 334 335 336 338 339 339 338 334 333 332 330 331 334 333 335 334 328 339 348 336 335 342 339 336 340 343 338 331 326 325 326 327 330 329 328 328 320 324 337 329 325 352 356 329 332 343 342 344 346 344 346 349 354 357 357 359 359 357 357 355
322 326 324 324 327 328 327 326 325 324 324 327 332 333 327 327 330 330 329 326 325 328 331 334 336 336 335 335 334 335 340 344 342 341 342 338 339 341 335 332 334 332 331 330 331 341 342 331 327 332 331 331 335 333 331 330 327 328 327 326 328 329 326 324 322 327 333 322 322 349 352 331 333 342 340 342 344 343 345 348 352 355 356 358 358 355 354 353
320 323 323 324 325 325 325 326 325 325 324 327 338 341 332 330 332 330 329 329 327 326 331 337 339 337 336 338 337 338 342 343 340 339 341 340 340 343 341 337 335 332 330 329 332 336 335 337 338 333 330 334 334 332 333 333 328 328 329 327 327 331 331 330 331 333 332 326 329 345 346 335 334 338 339 340 340 342 345 348 352 353 354 356 355 354 353 351
320 321 322 322 322 322 324 326 326 325 325 327 337 341 333 332 334 331 330 331 331 332 335 340 341 338 337 337 338 339 340 340 340 339 339 341 341 341 342 340 337 338 338 337 337 335 333 340 347 342 334 333 335 335 333 332 331 330 330 331 333 335 338 337 338 340 338 331 329 335 339 335 334 337 339 339 342 346 348 349 352 352 352 354 353 352 352 350
320 320 320 321 323 324 325 327 325 325 330 331 331 332 330 330 331 330 331 334 334 336 339 340 341 341 339 337 337 337 336 337 338 337 336 338 338 337 339 338 339 344 345 342 342 341 338 340 347 347 337 330 332 336 334 333 334 331 329 332 334 337 338 338 339 340 339 336 337 341 340 338 339 341 342 343 344 346 347 349 351 351 352 353 351 352 352 351
317 319 320 320 324 324 323 325 325 326 332 332 328 326 326 327 326 327 332 337 335 336 337 337 339 344 343 338 337 336 334 334 336 335 335 336 334 334 335 335 336 340 344 347 349 346 345 343 342 340 334 330 332 335 337 337 331 328 329 331 334 339 339 338 339 340 338 341 347 349 345 343 343 344 346 348 345 344 346 348 350 351 352 352 352 352 352 351
Wind_Speed
15 15 14 14 14 14 14 15 15 16 16 16 15 15 15 15 15 15 15 14 14 14 15 15 15 13 9 6 4 3 4 6 7 10 12 8 8 9 8 8 7 6 6 7 7 8 10 11 10 9 11 13 14 17 19 20 16 7 2 1 1 1 2 3 4 5 6 5 8 12 12 7 5 7 10 9 9 9 7 8 9 9 16 22 26 29 29 29
16 15 15 15 14 14 14 14 15 15 16 16 16 15 15 15 15 15 15 14 14 15 15 16 15 12 7 5 4 3 4 5 8 12 11 7 8 9 8 9 8 7 7 7 7 8 12 12 10 10 12 16 15 14 12 12 13 6 3 3 1 3 2 3 8 9 8 8 9 12 12 9 9 11 11 6 4 6 7 6 8 12 18 24 27 27 28 30
17 17 16 16 16 15 15 15 15 15 15 16 16 15 15 14 14 14 15 15 14 15 16 15 14 10 6 5 4 3 3 5 8 8 6 7 10 9 9 9 8 7 7 7 7 8 12 13 11 11 12 15 16 14 9 7 8 5 3 3 2 3 3 7 15 13 12 15 13 12 13 10 12 13 10 8 5 4 4 8 10 15 23 27 27 24 27 30
17 17 17 17 17 17 16 16 15 15 15 15 16 16 15 14 14 13 14 15 14 15 15 14 12 8 6 4 3 3 3 4 3 1 2 5 9 10 10 9 8 7 7 7 8 9 10 11 10 12 10 9 13 13 8 6 7 4 4 2 4 7 5 9 16 16 16 20 17 14 12 9 13 11 11 14 7 1 7 15 18 23 29 30 27 23 27 29
17 17 18 18 18 18 17 17 16 16 15 15 15 15 15 15 14 13 13 14 14 15 14 13 11 8 6 5 3 2 2 3 3 7 6 5 7 9 9 9 9 8 7 8 8 9 10 10 10 12 10 6 5 7 7 12 9 4 3 5 11 11 7 12 18 19 21 20 16 14 10 10 12 9 14 17 7 5 14 20 22 28 33 32 27 23 28 29
18 18 18 18 18 18 18 17 17 16 16 15 15 14 14 14 14 13 13 13 14 14 13 11 9 7 6 5 4 1 0 1 6 7 5 5 6 7 8 10 10 8 8 8 8 9 10 10 10 11 8 6 6 5 8 16 11 4 1 8 15 13 11 16 20 21 23 19 15 15 12 14 13 7 15 18 7 8 17 20 22 29 32 30 26 24 29 28
18 18 18 18 18 18 18 18 17 16 16 15 14 14 14 14 13 13 12 12 13 13 11 10 8 7 6 5 3 1 4 4 5 4 3 3 3 4 7 10 10 9 8 7 8 9 10 10 12 12 8 5 5 6 11 16 12 7 3 10 16 15 17 21 23 23 24 21 19 19 14 15 14 8 15 18 9 7 15 20 24 29 30 27 24 25 28 26
19 18 18 18 18 18 18 18 18 17 16 15 14 14 13 13 12 12 11 11 12 11 9 9 8 6 5 5 3 3 5 4 4 3 3 2 0 2 4 7 9 10 8 7 7 8 9 10 13 10 6 2 3 7 13 9 4 6 5 12 14 15 19 23 25 25 24 21 21 19 14 17 20 12 14 17 11 9 16 20 25 29 28 26 25 27 28 26
20 19 18 18 18 18 18 18 18 17 16 15 15 14 13 13 12 11 11 11 11 9 8 8 8 6 5 4 4 4 1 4 6 6 4 1 2 2 3 5 9 10 8 7 6 7 7 8 10 10 8 6 8 3 10 5 3 7 10 14 15 14 20 23 24 25 23 20 20 16 11 17 22 13 10 15 14 14 18 21 26 29 28 26 27 28 28 27
20 20 19 19 19 18 18 18 18 17 16 15 14 14 13 12 11 10 9 10 10 7 6 7 7 6 5 4 4 2 4 6 7 7 5 2 1 3 5 6 10 11 9 7 6 8 8 9 13 19 17 11 11 11 5 2 4 13 16 15 17 18 21 24 22 24 22 18 22 17 8 14 21 11 5 14 18 19 20 23 27 29 28 27 27 28 28 27
20 20 20 19 19 19 18 18 17 17 16 15 14 13 13 12 11 9 8 9 8 6 6 7 7 7 6 5 5 3 7 6 3 3 3 3 3 1 5 7 10 12 10 8 7 8 8 10 16 20 13 8 12 14 9 6 6 12 19 9 14 18 18 21 18 21 17 13 24 19 5 8 13 8 7 18 23 22 24 25 27 30 28 26 26 27 28 29
20 20 20 20 19 19 18 18 18 17 16 15 14 13 12 12 11 9 7 8 8 7 6 5 7 7 8 9 11 6 8 5 2 0 2 3 4 3 3 8 12 13 11 8 7 6 8 11 15 17 11 10 10 7 6 13 17 6 17 7 9 11 10 16 15 21 15 10 25 17 3 2 7 8 12 23 26 24 25 24 27 30 28 26 27 27 27 28
20 20 20 20 20 19 19 19 18 17 16 14 13 13 12 11 10 8 6 7 8 7 6 5 7 8 9 10 7 6 7 5 4 5 3 5 4 3 2 6 13 13 11 9 8 5 5 8 14 19 16 13 6 5 13 19 17 3 8 5 8 5 5 13 14 20 13 11 26 16 3 5 8 13 16 25 28 25 24 24 26 28 27 26 27 27 26 28
19 20 20 20 19 19 20 19 19 18 16 14 12 12 12 10 9 8 7 7 7 7 6 5 7 8 10 8 3 6 8 7 7 9 5 4 3 1 2 3 12 14 11 10 7 5 4 7 13 18 15 12 10 12 14 12 10 3 2 2 5 3 5 12 14 16 7 10 25 13 2 6 8 13 20 28 30 27 24 24 26 27 27 26 27 27 24 26
19 19 19 19 19 19 20 20 19 18 16 14 12 11 11 10 8 8 7 7 7 7 5 5 6 8 11 10 3 6 8 11 11 10 6 3 2 3 2 1 9 13 10 7 5 4 4 7 12 14 13 14 13 10 7 4 5 0 2 2 1 3 4 8 14 17 8 8 18 9 1 6 6 10 23 31 30 28 25 24 25 26 26 26 27 27 24 25
19 19 19 19 19 19 19 20 20 19 16 13 11 10 10 9 7 7 7 7 8 6 5 5 6 7 9 7 4 8 10 12 11 10 11 10 7 7 4 1 6 10 7 6 3 3 5 8 12 12 13 12 6 3 4 4 4 3 2 2 3 3 3 3 8 14 11 7 10 7 2 3 5 10 24 30 29 27 24 23 24 25 25 25 26 26 25 25
20 20 19 19 19 18 19 19 20 19 15 13 10 8 8 8 6 7 8 7 8 7 6 6 7 9 8 4 4 5 10 10 7 8 11 13 12 10 7 5 6 8 5 4 3 6 8 8 9 8 8 4 2 3 4 4 4 4 1 3 3 4 4 3 4 10 11 8 8 7 4 4 4 10 22 26 27 25 22 22 24 25 25 25 26 26 26 25
21 20 20 19 18 18 18 19 20 18 15 12 10 5 5 7 6 4 5 6 8 6 5 8 7 6 4 5 3 4 6 7 6 6 7 10 13 11 10 8 6 8 6 4 6 9 9 6 4 3 4 3 1 4 1 4 4 4 3 3 2 3 5 5 4 10 13 9 9 9 6 6 5 7 17 24 26 23 22 23 24 25 25 26 27 27 27 26
22 21 20 20 18 17 17 19 19 17 14 10 7 5 6 7 4 3 7 11 9 4 3 6 7 3 4 7 8 6 0 7 6 7 8 9 12 11 11 8 7 10 8 3 5 8 7 3 2 3 5 5 3 4 6 9 8 8 7 3 3 2 5 8 4 11 16 8 7 10 6 5 6 7 13 22 25 23 22 21 22 23 23 25 26 26 26 25
23 22 21 20 18 17 16 18 18 15 12 8 5 4 8 11 5 3 15 20 14 8 9 11 12 15 14 12 8 4 3 10 8 8 7 8 12 11 11 12 10 10 6 4 5 7 7 3 3 6 7 6 7 7 9 11 11 12 8 3 5 2 4 9 6 11 16 7 5 9 6 5 9 8 10 20 21 18 18 17 19 21 22 25 26 25 25 22
24 23 22 20 19 17 15 16 15 12 10 8 9 9 9 11 5 7 18 20 15 11 13 15 16 20 19 13 7 5 4 5 8 9 7 11 14 8 10 13 7 5 6 6 4 3 4 3 7 10 10 10 12 10 8 11 12 11 5 4 6 4 3 5 8 13 13 7 3 7 6 7 10 9 8 15 15 14 18 18 18 20 21 24 25 24 20 17
24 24 23 21 19 17 15 14 12 8 8 9 10 11 9 9 7 9 13 14 17 16 14 13 15 19 19 15 8 8 12 6 6 10 9 13 13 8 11 11 4 4 6 4 2 2 2 5 12 14 10 10 11 8 8 11 9 5 2 3 5 4 4 5 6 15 12 5 3 8 9 7 7 7 6 12 13 15 22 23 22 23 21 23 24 22 17 14
25 24 24 22 19 16 13 12 8 4 6 10 12 12 8 6 7 10 11 10 16 19 16 15 17 18 19 15 8 10 14 7 5 11 13 13 14 13 12 8 4 5 3 3 5 3 4 7 12 12 9 7 8 9 7 5 3 2 2 1 4 4 1 4 4 11 8 3 6 8 5 2 2 3 4 8 11 12 20 22 22 23 22 23 23 20 17 15
25 24 24 23 20 15 12 9 5 4 5 8 11 12 9 7 8 12 11 6 8 13 13 13 16 17 19 13 5 8 12 8 7 10 15 15 16 14 10 8 6 4 5 7 8 6 6 9 11 9 9 8 7 8 6 4 3 4 3 2 5 5 2 0 3 6 2 3 5 8 4 4 3 3 5 6 6 7 14 16 16 20 21 20 17 16 17 17
25 24 24 23 21 15 10 6 2 4 5 4 7 9 9 7 8 10 8 3 4 7 5 9 12 14 17 11 7 10 9 10 11 11 16 17 17 13 8 9 7 4 7 8 7 5 8 14 14 8 9 9 6 8 5 1 2 4 4 4 6 4 2 2 4 6 5 3 2 6 4 4 4 5 7 5 3 5 10 11 13 18 18 14 14 15 16 16
25 23 23 23 21 17 10 4 4 5 5 2 2 3 3 3 5 7 4 3 3 4 1 7 10 8 11 10 12 10 3 7 12 12 16 17 17 14 7 6 6 6 8 6 4 3 6 12 10 7 8 7 5 7 5 3 4 2 4 3 2 2 5 5 4 5 4 2 6 6 5 1 3 5 7 4 4 6 6 7 10 14 15 14 17 17 17 18
25 23 22 22 21 19 13 8 8 8 6 5 4 4 4 5 6 6 2 3 2 3 3 6 8 6 8 9 12 9 1 4 10 11 17 18 18 16 7 3 4 5 5 3 2 4 6 10 8 7 8 4 1 3 4 3 6 2 7 3 4 4 5 5 5 2 3 2 3 5 5 3 2 5 4 5 5 5 4 5 6 9 14 17 19 19 19 20
25 22 22 21 19 20 17 13 10 7 7 9 7 6 6 7 7 4 1 2 1 3 3 5 6 5 9 12 16 14 2 0 6 8 17 20 17 13 7 4 4 4 5 3 4 6 5 7 8 8 5 2 1 4 4 4 5 5 7 3 2 2 3 4 5 4 1 4 4 4 4 5 2 5 1 6 4 5 5 7 6 8 14 19 21 22 20 17
25 22 22 21 19 18 17 16 12 7 6 9 9 8 7 6 5 1 2 1 1 2 3 5 5 5 10 13 14 14 6 5 3 10 19 20 17 11 4 5 5 4 7 6 6 7 4 5 7 5 3 3 4 6 3 3 1 5 2 3 3 2 3 5 3 4 3 4 5 5 3 5 2 5 1 4 2 5 6 6 5 9 15 19 21 23 21 16
25 21 21 22 19 16 15 14 9 5 5 5 7 8 6 4 1 3 2 1 2 2 3 5 5 7 10 6 3 6 5 8 6 13 17 14 14 11 4 5 5 1 3 4 4 6 7 9 9 3 4 5 3 3 2 2 4 3 3 4 5 5 5 4 1 1 4 2 7 4 5 6 1 5 3 3 4 5 6 3 4 8 14 18 19 21 21 18
26 21 20 21 18 15 15 11 4 3 6 4 2 3 2 1 2 4 0 1 2 1 2 2 3 8 10 5 1 2 2 5 4 11 9 4 5 6 1 2 4 0 3 4 3 6 4 5 6 3 6 4 3 2 3 3 1 2 3 4 3 5 5 5 5 4 3 3 5 3 9 8 3 3 5 6 6 5 8 6 7 9 13 18 19 19 20 19
26 22 18 18 17 14 12 9 5 5 6 4 2 1 2 3 2 1 1 1 0 2 2 3 3 5 7 4 2 3 2 3 5 7 5 2 3 3 2 2 3 1 3 2 2 6 4 4 5 4 6 4 4 3 5 6 6 4 4 5 4 3 4 3 4 2 1 4 3 6 10 6 0 3 6 7 6 5 7 11 15 15 16 19 20 20 19 18
27 22 17 16 14 10 7 6 6 5 4 2 0 2 4 4 0 3 3 3 2 3 4 4 4 5 6 4 2 4 3 3 4 5 4 3 3 3 4 4 5 4 1 3 1 3 3 6 5 2 4 4 7 2 2 2 2 2 2 3 3 1 2 2 3 2 1 2 0 4 8 4 2 3 5 6 5 5 9 17 23 23 22 22 21 21 20 18
26 20 17 14 9 6 4 3 3 2 2 3 2 4 4 1 3 3 3 3 2 3 4 6 6 5 5 4 3 4 3 2 4 6 4 3 3 2 4 5 5 4 2 0 1 1 1 4 4 2 4 4 6 6 6 4 1 2 4 5 3 3 3 2 3 1 2 1 1 3 4 3 3 2 3 2 1 8 15 20 22 21 22 22 20 20 21 19
24 17 15 11 4 3 5 4 1 2 4 4 4 4 2 2 3 2 3 3 0 3 5 7 7 5 4 4 4 3 4 3 3 4 4 4 3 4 4 4 6 5 4 2 2 2 2 4 7 6 8 9 6 5 6 6 1 3 3 5 0 4 4 2 3 4 2 1 3 3 2 3 3 1 3 4 6 10 18 20 20 19 19 20 20 20 20 19
21 12 9 5 1 2 5 5 2 4 4 2 4 1 3 3 3 2 4 6 2 3 5 5 5 4 3 3 4 5 5 3 3 3 3 5 5 5 5 5 7 6 6 4 2 1 0 4 6 3 6 9 9 9 6 7 3 2 2 2 5 5 6 2 3 1 4 5 2 1 3 1 1 3 4 3 5 7 12 15 17 18 19 19 19 19 19 19
20 11 5 3 2 4 4 5 1 5 2 5 4 2 3 3 5 3 5 9 4 3 4 3 3 3 4 4 3 5 4 2 3 3 3 3 3 5 6 6 9 9 9 9 4 3 2 4 7 1 4 5 13 14 6 6 8 3 0 4 4 0 3 3 1 3 5 5 1 2 6 5 2 1 2 1 3 5 7 10 13 15 17 17 17 19 19 19
21 13 5 2 4 6 5 3 3 6 3 6 1 4 2 3 5 5 10 12 5 2 2 2 2 3 4 3 5 5 5 3 4 4 3 2 3 6 8 5 9 13 13 13 6 2 4 1 8 2 5 3 5 7 1 4 4 5 3 3 1 1 1 1 1 0 2 4 2 2 3 3 2 4 6 7 7 8 8 8 10 12 15 16 17 19 19 19
21 13 5 3 7 7 5 3 5 4 4 4 1 3 2 4 9 13 17 13 4 2 2 2 1 2 3 4 4 5 6 6 6 4 3 3 3 6 10 6 7 11 13 15 7 2 3 2 5 5 4 4 2 3 2 6 4 3 2 4 1 3 3 1 1 3 3 4 3 2 1 1 5 6 9 11 10 11 11 9 9 13 17 19 20 20 20 20
18 10 3 4 8 7 3 5 5 3 3 2 3 4 4 5 9 19 24 15 3 1 1 1 0 1 4 6 5 4 6 6 6 4 3 5 3 3 7 7 4 6 12 16 8 2 2 2 1 5 3 4 2 1 5 6 3 2 1 4 2 2 1 1 1 2 4 4 4 3 1 5 5 5 10 13 11 11 13 11 9 15 21 22 23 23 22 22
13 7 2 4 8 8 1 4 2 1 1 2 3 3 6 6 7 17 26 20 8 1 2 1 2 2 3 5 4 3 4 4 5 4 3 5 4 2 4 8 8 5 8 10 6 2 2 1 1 2 4 1 4 7 7 8 6 6 4 4 4 3 1 2 3 3 2 3 4 5 3 6 5 5 10 10 10 11 15 15 13 18 24 24 25 25 23 22
10 4 1 3 7 9 3 2 1 2 2 3 5 5 10 10 7 12 16 16 12 4 1 0 2 3 2 2 3 3 4 4 5 5 3 4 6 4 4 9 12 8 5 4 4 3 4 4 2 1 3 4 7 8 6 6 6 6 4 3 3 2 4 4 2 4 1 1 2 4 3 5 7 7 7 8 12 16 20 22 19 21 26 26 26 25 22 22
13 8 3 5 8 9 4 1 3 2 3 6 9 12 16 11 8 9 8 9 9 6 4 3 2 2 2 1 2 0 2 2 3 4 2 2 3 2 6 13 13 7 5 1 2 1 3 3 2 3 4 5 7 7 4 2 4 4 1 1 3 3 3 5 5 3 1 1 2 4 2 5 7 5 5 9 15 18 22 26 24 23 25 25 25 24 23 23
17 12 6 2 9 9 4 1 2 2 4 7 8 11 15 11 9 8 4 4 4 3 4 4 4 4 3 2 3 2 2 2 1 1 2 1 1 6 17 21 13 5 3 2 1 1 2 1 2 3 4 6 7 8 8 6 3 1 3 3 3 4 1 1 1 3 2 2 5 6 2 6 6 1 4 7 10 12 17 25 27 25 24 24 24 25 24 24
13 8 9 6 7 13 7 3 3 4 4 6 7 8 9 8 9 10 7 4 4 3 2 5 8 8 5 3 5 4 2 3 1 3 3 1 2 6 16 22 15 6 5 7 5 3 2 2 3 4 3 2 2 3 3 4 3 2 3 4 3 4 4 2 2 4 1 3 3 5 5 5 5 2 5 5 6 8 12 19 22 23 26 26 26 27 26 26
7 2 7 10 2 11 10 10 9 5 4 5 6 6 5 5 8 10 7 2 4 4 3 5 9 9 8 8 6 5 7 6 5 5 4 2 1 2 11 19 15 8 9 12 9 5 3 2 3 6 6 5 4 6 5 2 1 4 6 6 6 4 3 6 4 2 3 1 2 3 5 3 2 6 7 8 8 7 10 17 19 21 26 28 28 29 27 26
4 2 4 8 5 4 7 10 7 5 7 7 4 4 6 6 7 8 5 3 4 6 4 4 7 9 9 9 5 3 7 9 7 6 5 4 3 3 9 14 10 8 10 10 7 5 4 3 1 4 2 5 7 7 5 0 2 4 5 7 7 7 4 3 3 4 5 3 3 8 5 7 8 11 10 10 9 7 10 18 23 25 28 30 29 28 27 26
3 5 6 7 4 2 4 8 11 11 11 9 4 3 5 6 5 5 6 7 8 6 3 3 7 9 10 9 5 4 7 6 6 6 5 5 5 4 7 7 6 8 8 6 4 5 5 1 1 2 3 5 2 4 5 3 1 2 6 8 8 9 7 2 1 3 3 4 6 8 7 9 10 13 13 12 13 14 16 22 27 28 30 32 31 29 28 28
5 5 7 8 6 6 8 13 16 13 9 7 4 2 3 4 5 6 5 5 8 4 5 2 6 9 12 11 8 7 8 4 3 6 4 4 5 4 5 5 8 9 8 5 3 4 5 1 2 2 4 6 7 8 7 7 5 7 10 9 8 9 7 6 6 7 2 5 9 7 7 7 9 13 14 14 17 18 19 23 26 27 29 32 33 30 28 27
6 5 8 11 10 10 12 13 11 8 7 6 3 3 4 4 5 6 5 4 6 6 3 3 4 7 10 11 10 8 7 3 2 4 4 4 5 4 3 1 4 7 7 4 3 6 4 1 3 4 4 6 9 11 10 7 7 10 14 14 12 13 14 12 10 10 7 4 3 4 6 1 3 2 7 14 19 20 21 23 26 27 29 30 29 29 27 26
4 6 8 9 7 8 10 10 8 5 4 4 4 6 7 7 9 9 6 4 5 4 4 1 4 7 9 11 12 7 8 8 5 6 6 5 4 3 1 1 1 3 5 3 2 4 4 1 3 6 5 4 7 10 10 6 9 10 12 13 11 11 12 11 10 9 6 5 8 8 5 4 5 6 13 16 19 21 20 22 24 24 27 28 28 30 30 30
6 6 5 3 3 5 7 8 7 5 3 6 9 9 7 10 17 15 7 3 8 10 8 2 5 6 7 9 10 9 13 14 12 12 9 6 7 7 5 7 6 4 2 2 2 2 3 3 2 4 4 4 6 7 7 5 9 6 5 6 6 10 13 13 14 14 10 5 7 5 1 4 4 6 11 10 11 15 17 20 22 24 26 29 32 32 32 32
Wind_Direction
346 345 346 345 344 344 343 342 342 341 342 342 342 342 342 343 344 343 342 341 340 338 338 335 334 334 323 308 305 297 277 263 262 255 247 239 227 227 229 227 221 229 255 271 273 283 278 266 261 265 259 246 235 240 248 240 221 194 136 94 133 219 232 187 171 160 139 147 168 179 187 163 139 131 117 110 105 103 100 120 134 140 153 151 146 150 153 157
347 346 346 345 344 343 343 343 342 342 341 341 342 342 342 343 344 343 340 340 339 338 337 335 334 331 320 309 307 300 282 266 268 261 247 223 214 216 215 220 224 233 252 259 266 274 276 281 286 292 267 246 242 237 234 214 194 184 101 78 208 201 221 152 138 146 146 155 168 174 173 157 151 148 139 126 110 115 104 117 135 143 154 152 152 156 157 160
349 349 348 346 344 344 344 343 343 342 341 340 340 340 341 342 344 343 339 338 339 338 337 336 335 329 318 310 311 307 298 290 283 273 251 221 215 213 208 215 222 234 254 259 271 273 278 289 292 297 275 246 239 222 214 197 184 196 132 73 258 167 129 138 142 156 161 152 154 161 165 164 159 154 150 146 138 141 145 156 151 152 159 159 161 161 159 165
353 352 350 348 346 345 345 345 344 342 342 340 339 338 338 339 342 343 339 336 337 338 339 338 336 330 318 315 321 317 331 328 298 123 128 189 201 210 213 216 220 234 253 262 273 278 288 295 293 303 296 263 234 206 205 217 189 170 151 162 188 148 133 158 156 160 158 152 154 160 163 167 167 160 153 146 132 269 199 176 167 164 164 164 166 163 162 170
355 354 352 350 348 346 346 347 345 344 343 341 339 337 336 337 338 341 341 337 335 337 340 340 337 330 319 317 325 327 19 21 114 110 97 129 165 192 208 211 217 229 243 259 269 281 289 284 294 309 303 284 234 185 195 218 195 133 157 175 173 161 146 166 164 158 157 157 157 158 163 167 167 164 161 156 149 211 193 180 173 169 167 166 169 164 166 173
355 355 353 351 348 346 345 346 346 345 342 342 340 337 336 334 334 338 340 338 333 337 341 342 338 330 321 318 324 321 49 123 132 115 98 105 130 164 191 202 210 222 234 257 265 275 281 281 299 303 289 270 234 180 185 212 197 119 148 168 176 173 149 159 164 162 161 161 165 170 171 163 160 175 180 176 184 198 183 177 174 171 169 168 171 168 170 176
354 354 352 350 348 346 344 344 345 344 342 341 338 337 335 332 331 333 338 337 333 338 341 341 338 328 320 317 325 299 269 230 160 130 105 102 110 145 181 194 201 214 228 251 263 280 286 290 294 282 275 269 243 178 181 207 183 130 142 171 180 171 152 160 164 166 168 169 176 174 167 165 170 183 188 193 216 207 179 178 176 171 171 174 176 176 176 177
352 352 351 349 348 346 343 342 342 342 341 339 337 335 333 332 328 328 335 335 334 341 342 342 340 326 319 316 323 310 281 233 163 118 81 84 70 137 172 189 196 208 223 240 262 288 292 291 287 280 266 276 9 142 174 215 180 131 163 173 178 164 155 162 164 170 174 175 178 173 171 180 185 177 181 201 217 191 172 176 177 171 174 179 180 181 181 179
351 350 350 348 347 345 343 342 340 340 339 337 336 332 330 330 325 324 329 330 333 340 341 341 338 326 316 307 313 315 254 128 113 84 50 353 254 226 208 201 196 202 214 225 257 271 272 294 303 317 305 303 360 104 174 216 222 178 177 169 168 159 156 161 165 171 176 179 176 174 183 190 190 175 180 205 197 172 166 172 177 174 177 181 184 186 185 183
350 349 349 347 346 344 342 340 338 338 337 335 332 329 328 327 323 320 322 326 329 335 339 339 339 330 312 300 302 301 135 120 97 70 39 68 136 222 218 207 196 197 204 214 240 245 259 306 322 325 312 308 345 333 299 263 196 177 174 166 161 157 156 162 166 173 176 178 176 175 193 200 193 182 191 198 182 170 166 172 179 177 180 184 186 189 188 186
350 349 348 347 345 343 341 339 337 335 334 332 329 326 325 323 321 315 314 319 320 326 328 331 336 324 314 298 261 201 130 130 100 57 29 68 46 281 208 199 191 192 195 208 225 235 274 314 324 322 314 324 334 319 306 319 324 172 162 143 152 153 156 166 168 173 171 175 184 179 176 201 193 203 204 179 175 175 170 173 180 180 182 185 188 191 191 188
350 349 348 346 344 342 340 337 334 333 332 330 326 323 321 320 317 308 308 309 310 318 309 317 331 319 316 291 253 195 133 155 205 262 326 339 346 357 202 194 185 187 190 203 221 236 292 317 320 315 314 331 327 316 304 312 325 173 149 107 148 148 157 174 171 174 171 180 188 174 90 230 204 226 201 172 174 176 171 173 179 183 185 187 190 191 193 193
350 349 347 345 343 340 337 335 333 331 329 327 324 319 316 315 311 302 298 298 302 310 299 304 318 316 312 287 244 169 160 193 217 216 268 315 311 1 3 188 178 180 185 200 220 240 299 320 317 310 312 321 310 308 312 309 318 252 152 107 151 142 183 187 175 177 181 185 183 165 67 241 224 229 199 172 175 174 171 175 179 185 187 190 193 194 196 196
350 348 346 345 342 339 335 334 332 329 328 327 322 316 311 310 306 294 289 290 293 299 298 301 307 314 303 281 183 162 196 195 207 216 233 312 305 289 337 179 176 176 181 199 218 240 283 318 317 310 307 307 300 308 314 310 312 259 165 65 144 160 213 196 174 169 179 189 180 161 45 232 235 234 199 177 177 173 172 178 180 186 188 193 196 196 198 196
350 348 346 345 342 339 335 332 330 329 327 325 319 312 307 304 297 286 283 283 286 292 296 292 294 311 305 286 198 170 193 189 205 208 203 253 279 225 234 164 177 172 171 188 206 239 266 308 309 305 301 297 302 312 323 321 315 40 126 341 205 190 224 200 176 169 168 181 180 164 25 242 253 225 192 180 180 178 176 180 183 187 189 194 198 198 198 196
350 349 347 345 343 340 336 331 329 329 328 326 319 310 304 302 297 285 283 283 286 291 288 276 279 306 307 286 191 175 193 200 212 210 214 231 224 212 212 119 166 162 157 170 180 271 279 298 296 292 289 289 304 334 348 344 326 2 125 205 205 197 230 202 177 177 166 149 179 186 169 243 266 201 185 183 183 181 179 182 184 188 191 193 197 200 199 199
351 349 348 347 346 343 337 331 329 329 332 329 318 311 310 311 309 287 281 288 289 288 282 257 271 297 284 239 172 192 216 213 212 213 221 221 203 201 206 184 166 160 162 176 213 270 273 280 284 284 278 273 78 84 1 329 296 323 151 194 223 189 182 180 173 175 162 150 186 204 203 239 264 182 181 187 186 183 182 184 186 187 192 195 196 199 200 202
353 350 349 348 349 346 338 332 331 331 337 336 325 342 353 328 323 300 298 314 299 290 280 244 248 300 275 229 263 309 266 219 203 199 194 191 185 199 209 190 165 171 187 212 227 246 256 263 268 306 307 286 73 109 149 257 247 273 238 210 237 168 175 203 185 164 166 175 185 189 220 253 265 179 181 192 190 188 189 187 188 189 192 196 198 199 201 204
353 351 349 350 350 347 340 334 331 333 342 347 335 355 21 7 30 55 359 336 300 273 273 236 216 246 273 264 282 332 24 172 178 178 173 179 185 202 204 187 186 185 184 195 221 226 227 263 311 309 291 272 263 160 200 242 247 264 263 228 232 191 195 216 193 157 162 175 190 182 204 226 209 195 186 192 194 194 195 189 188 191 193 196 199 200 200 206
353 352 349 350 351 348 343 335 331 335 345 3 21 41 28 15 44 29 342 322 291 274 275 260 251 261 273 278 285 339 129 159 167 175 173 180 184 195 194 187 193 188 179 167 202 225 202 219 263 243 249 252 259 233 229 256 257 263 279 304 285 290 219 218 187 156 156 164 209 182 182 192 190 206 192 188 195 198 194 188 186 188 191 194 197 200 202 206
350 351 349 349 350 348 344 336 334 340 354 20 45 57 38 22 26 340 335 318 298 294 276 261 260 265 270 272 275 327 301 192 181 182 176 182 183 191 191 184 177 182 210 192 188 252 176 198 243 233 236 238 250 249 251 269 257 248 269 335 318 328 288 240 158 156 159 157 188 155 162 200 195 203 190 177 188 204 198 188 187 189 188 190 194 196 195 194
347 348 348 348 350 350 343 338 337 348 22 41 50 55 46 35 27 347 333 309 297 296 279 263 261 259 260 259 258 288 284 260 196 192 183 186 189 192 181 169 147 192 222 200 164 318 191 227 245 239 240 240 257 270 263 266 255 243 312 11 325 307 317 341 124 158 165 146 151 153 172 209 206 206 199 175 183 207 204 195 196 197 191 191 195 190 177 178
345 344 345 346 348 351 345 340 345 10 38 42 42 41 33 23 14 347 328 297 290 290 279 257 248 248 247 247 249 262 259 241 214 204 187 190 192 188 177 158 162 198 213 192 178 205 215 238 251 253 264 263 274 285 276 284 298 314 1 32 297 292 328 6 100 161 172 149 154 152 158 258 266 260 257 205 197 210 206 202 204 204 202 203 200 188 176 176
344 342 341 343 346 353 349 340 4 43 26 35 38 40 35 23 10 345 324 295 284 289 276 239 231 240 237 235 231 236 232 218 233 207 184 193 189 181 187 177 171 194 212 205 194 202 231 254 263 264 266 261 269 283 295 2 359 315 315 252 257 275 252 171 106 135 109 38 128 116 64 327 259 223 259 243 222 216 202 201 206 206 209 208 193 179 183 190
345 341 337 340 343 349 353 337 350 15 356 26 47 48 45 29 12 346 329 318 284 285 273 213 218 234 230 228 228 229 230 223 234 213 187 193 189 179 193 192 178 206 218 210 205 214 247 257 258 258 263 266 264 264 263 74 13 325 308 253 227 223 298 350 73 94 68 13 177 122 87 290 253 208 238 257 239 219 199 197 201 201 205 195 169 165 178 190
345 340 334 336 339 344 355 342 300 317 323 326 45 46 26 355 347 334 332 33 307 260 152 180 196 214 217 222 224 219 253 235 229 224 198 192 197 188 182 194 188 210 214 199 199 208 245 251 249 243 254 267 261 252 241 152 101 332 282 258 199 105 35 357 16 81 115 193 210 169 123 253 246 222 235 234 224 226 206 206 203 195 194 175 159 165 173 181
344 339 332 332 337 337 340 338 314 303 292 270 249 243 277 302 315 314 320 43 326 217 147 173 182 192 196 201 205 187 51 226 207 223 208 193 199 197 193 214 184 212 218 163 201 232 225 239 248 239 240 251 252 253 247 143 107 244 277 343 36 18 8 353 4 26 175 158 225 190 127 103 224 247 226 170 195 229 219 229 216 182 176 162 156 165 173 179
344 339 328 326 334 330 327 331 323 305 279 264 251 249 285 301 296 305 77 57 327 176 149 172 177 195 185 177 190 194 222 151 164 208 209 194 192 193 201 217 177 240 255 170 219 254 216 219 236 231 234 227 205 243 228 117 100 240 267 343 19 320 344 11 11 324 297 43 327 246 121 90 322 293 237 134 178 228 217 224 212 170 162 157 157 163 171 181
344 339 326 322 329 326 322 325 324 325 299 270 262 265 285 295 282 6 79 111 170 184 159 158 161 183 182 174 193 209 247 311 243 194 197 196 195 190 201 225 206 258 265 208 212 254 237 225 232 202 201 229 237 270 256 119 166 241 227 17 342 359 19 20 5 305 4 35 281 256 130 98 339 292 194 110 239 236 215 223 205 172 163 162 163 163 169 182
343 339 325 319 325 326 321 325 329 351 345 286 267 267 273 286 310 58 39 154 162 198 148 152 165 158 166 171 219 217 229 279 245 175 183 194 195 200 225 256 233 229 280 246 228 251 244 254 266 200 175 213 209 265 278 172 227 234 74 35 356 1 12 17 13 55 47 327 266 229 136 114 102 277 219 166 237 199 175 192 177 166 165 166 167 163 167 178
342 337 325 318 322 325 321 321 316 341 354 352 307 265 249 336 63 84 82 197 161 178 115 160 177 146 154 165 238 210 216 269 194 148 176 194 165 198 229 312 254 118 353 326 305 295 280 263 273 208 189 194 76 14 337 12 36 108 69 50 24 346 1 12 358 42 93 268 272 128 102 94 107 257 238 233 247 186 162 171 167 165 167 167 167 164 166 174
340 334 323 315 318 322 316 308 290 310 344 3 24 88 111 42 26 142 244 297 239 198 173 182 180 157 166 166 189 202 180 238 185 140 169 160 112 186 171 170 202 76 343 286 299 321 316 255 249 224 219 181 97 1 334 358 18 61 62 59 62 348 3 7 333 18 163 259 260 117 93 78 149 241 230 232 248 213 167 164 164 164 167 167 165 165 168 174
340 333 321 314 317 320 315 305 290 298 323 315 335 56 79 71 303 236 254 283 247 192 158 151 157 150 154 152 229 213 175 213 203 150 152 134 111 211 232 217 176 128 222 229 288 341 334 303 291 289 265 185 136 150 293 319 350 64 103 96 100 87 42 322 298 335 305 298 253 99 84 82 288 288 240 237 245 204 158 159 164 165 168 169 165 165 170 179
340 333 320 318 323 333 352 346 290 268 247 218 131 64 70 90 244 240 251 249 210 179 144 138 148 141 150 182 232 196 161 225 201 149 141 116 98 200 260 259 205 154 128 74 330 191 55 312 271 218 234 183 152 176 171 152 193 209 164 127 125 155 143 228 239 232 275 303 353 13 61 141 201 260 240 225 156 141 140 150 157 159 165 165 163 168 172 180
341 333 321 324 330 4 29 28 348 167 189 185 89 70 126 211 259 264 285 290 171 163 150 134 136 137 172 224 260 206 164 192 204 148 142 153 154 193 211 243 229 181 126 98 257 197 155 254 246 230 200 171 158 189 156 113 341 265 142 102 129 194 156 196 204 181 182 65 360 356 55 184 201 356 22 77 93 116 126 135 140 147 157 160 164 170 171 176
342 339 332 344 350 350 33 43 73 165 187 133 75 88 206 214 241 247 309 315 341 116 128 124 125 137 195 231 277 244 198 181 191 156 163 179 178 198 200 219 223 183 144 154 234 236 205 278 274 236 184 169 162 176 166 143 170 309 82 157 242 194 142 153 259 322 75 82 3 10 111 170 13 22 7 59 94 106 117 130 139 146 153 157 165 169 169 172
346 354 1 62 52 351 33 47 128 182 168 70 88 231 243 244 234 224 296 302 317 91 122 142 145 160 195 204 239 233 197 177 186 166 186 196 190 201 206 224 218 195 169 167 208 251 184 284 300 149 157 200 179 173 180 177 160 114 181 221 257 314 97 111 180 349 48 94 249 200 148 156 140 123 244 225 143 137 135 139 143 148 154 158 165 172 173 171
345 351 354 37 7 0 36 59 175 175 91 62 92 253 243 249 250 258 288 293 308 71 116 137 161 182 181 196 232 206 162 170 195 180 182 201 238 206 191 212 224 213 190 171 190 263 139 299 306 232 162 208 181 149 66 274 186 134 204 221 93 53 342 15 97 28 67 107 143 238 145 144 181 180 191 203 186 165 158 153 150 155 161 163 168 174 175 172
340 343 348 344 338 353 29 114 162 135 60 65 228 258 249 272 275 283 293 295 307 58 97 122 149 194 191 209 227 185 168 184 185 177 172 173 238 213 184 187 226 222 190 166 178 275 117 115 296 263 186 132 64 82 134 264 280 57 321 295 84 145 184 218 194 156 138 122 150 197 1 279 233 195 184 196 187 167 164 166 166 167 167 167 171 175 176 176
338 343 350 315 320 340 31 135 141 86 64 148 231 259 273 289 286 294 304 309 309 102 107 161 48 148 211 224 224 181 177 183 171 171 187 183 213 243 197 185 192 203 176 165 179 256 77 101 269 296 326 102 135 230 177 205 218 83 316 287 288 269 185 87 300 165 131 127 147 141 147 260 249 194 188 192 180 172 172 168 169 170 168 170 174 175 179 180
345 354 329 277 301 316 338 135 139 52 98 235 248 249 277 292 294 297 308 321 329 229 167 178 235 226 220 224 230 195 172 166 166 178 204 187 180 242 232 194 168 156 157 160 180 193 116 82 151 321 346 37 239 244 197 184 173 149 176 212 221 235 122 77 313 292 107 128 154 136 162 252 250 195 198 187 171 181 174 161 164 169 168 172 176 178 181 181
352 352 199 222 278 294 276 151 268 225 179 275 264 270 289 292 291 291 308 339 350 325 216 342 250 249 239 208 218 188 170 177 182 193 223 183 171 207 229 169 147 128 111 141 209 197 137 97 71 320 277 254 267 266 227 185 153 144 174 193 169 146 122 126 221 265 328 56 105 105 131 250 244 210 204 180 172 181 172 161 162 167 168 172 174 176 178 178
341 318 267 219 248 268 253 264 314 254 227 272 270 281 289 281 274 287 313 354 352 346 356 331 300 330 328 281 304 106 151 168 170 166 167 168 186 188 123 122 122 103 74 76 273 313 85 84 53 323 294 296 311 318 327 20 90 110 251 220 153 186 184 157 174 204 330 36 104 84 89 254 254 233 205 186 176 171 166 164 162 162 166 168 168 169 171 173
333 318 323 236 219 232 231 214 299 289 280 290 288 296 299 287 270 277 310 352 332 351 2 317 318 340 309 299 341 357 101 109 113 79 87 114 127 106 107 108 108 94 87 135 190 38 50 73 78 46 358 347 349 354 354 349 20 87 258 245 185 203 206 103 120 71 21 235 150 124 176 250 261 206 151 184 171 154 162 165 162 159 158 159 160 163 166 167
338 332 356 9 197 209 228 253 276 297 313 311 300 295 300 296 278 262 259 304 317 339 354 309 319 331 323 346 356 351 48 105 105 4 13 66 101 104 102 101 102 108 117 112 95 77 101 121 106 101 98 65 2 319 301 292 313 336 287 272 233 191 152 117 71 60 9 252 123 134 194 252 280 108 123 181 165 139 153 156 156 157 154 156 159 160 163 164
356 356 353 358 237 215 253 284 290 286 289 305 301 286 287 308 303 282 263 269 328 338 352 324 331 348 358 360 357 4 23 38 53 38 12 7 40 75 91 97 99 100 107 99 79 69 91 91 108 128 153 173 192 229 231 192 336 315 301 306 306 272 160 118 98 91 205 196 31 232 195 145 174 162 157 187 171 143 146 145 149 155 153 156 161 160 161 163
10 16 357 355 331 268 297 311 315 306 291 292 281 273 295 318 332 325 317 326 337 346 4 358 8 19 5 352 346 5 27 33 36 32 16 1 352 29 76 91 92 86 99 93 71 87 84 15 53 118 178 215 204 233 260 204 192 254 300 322 321 303 292 114 136 207 175 110 317 260 195 136 176 191 184 184 168 154 156 151 155 158 155 157 159 158 160 163
6 340 352 0 331 292 329 319 315 317 307 297 268 248 297 322 350 353 335 321 327 356 42 3 10 26 15 9 15 3 18 35 21 9 16 16 6 11 37 40 28 49 82 83 52 98 102 358 251 84 327 287 254 282 314 1 274 299 346 332 319 310 296 263 253 255 162 163 234 233 181 155 180 196 192 180 170 170 165 157 157 157 154 156 158 159 162 160
8 332 330 350 331 289 295 298 300 305 307 307 301 264 297 346 358 341 335 331 320 344 76 38 353 24 31 34 48 29 18 35 23 5 10 20 17 24 39 13 350 12 53 76 24 54 94 244 266 69 9 331 351 356 4 25 20 21 16 357 357 8 13 38 16 349 350 218 220 191 160 169 192 201 194 176 167 160 146 143 148 150 153 158 159 161 160 156
13 347 327 337 323 298 303 307 307 309 312 324 326 295 311 7 10 328 325 2 326 315 35 58 28 46 47 41 48 43 19 24 56 16 20 38 21 17 57 35 316 349 28 60 10 16 60 263 287 69 52 338 356 5 1 22 47 38 24 17 33 46 41 37 20 1 360 320 261 132 117 123 274 194 138 135 139 134 128 138 148 152 157 158 155 156 157 159
325 308 314 329 317 303 320 325 322 319 311 328 351 343 340 354 351 325 315 32 45 10 359 69 88 64 51 41 39 25 1 0 347 345 16 57 35 2 356 348 341 11 14 32 37 21 51 19 341 55 57 326 351 3 345 9 54 41 24 22 35 54 51 40 28 14 5 10 28 50 60 316 315 78 99 116 130 132 137 145 148 152 157 156 153 155 161 168
303 277 277 315 295 296 327 329 325 330 322 336 350 350 345 343 340 333 317 14 44 36 21 37 115 77 48 36 22 351 348 350 330 326 346 14 12 6 359 359 29 74 44 27 58 29 72 80 19 60 72 314 331 353 339 25 49 21 359 24 53 73 65 50 41 29 11 24 58 63 23 291 314 88 105 118 128 135 145 148 150 156 159 162 164 164 168 175